Date_and_time,latitude,longitude,wind_speed,RelWindDirFrom,WindDirFrom,air_pressure,air_temperature,relative_humidity,Temp,platform_speed_wrt_ground,air_pressure_at_mean_sea_level,platform_orientation
2019-01-22 00:00,50.6304516666667,-96.98077,7.7,9.5,173,990.58,-12.9,79,0.37,0.0,1019.94,90.0
2019-01-22 00:00,50.6304516666667,-96.9807683333333,6.6,6.6,170,990.62,-12.9,79,0.38,0.0,1019.99,360.0
2019-01-22 00:10,50.6304516666667,-96.980765,6.5,8.3,176,990.66,-12.9,79,0.38,0.0,1020.02,360.0
2019-01-22 00:20,50.63045,-96.980765,6.5,8.2,177,990.65,-12.8,80,0.38,0.0,1020.01,360.0
2019-01-22 00:30,50.63046,-96.98082,6.9,10.0,181,990.69,-12.8,80,0.39,0.0,1020.04,360.0
2019-01-22 00:40,50.6304533333333,-96.9807716666667,5.8,8.4,187,990.79,-12.7,81,0.39,0.0,1020.14,360.0
2019-01-22 00:50,50.63044,-96.9807483333333,5.7,8.5,189,990.90,-12.6,81,0.39,0.0,1020.25,360.0
2019-01-22 01:00,50.6304483333333,-96.9807566666667,5.9,7.8,188,990.99,-12.6,82,0.40,0.0,1020.34,270.0
2019-01-22 01:10,50.6304633333333,-96.9807783333333,6.6,9.0,184,990.91,-12.5,82,0.40,0.0,1020.25,270.0
2019-01-22 01:20,50.6304566666667,-96.98078,7.2,10.5,183,990.93,-12.5,83,0.40,0.0,1020.26,270.0
2019-01-22 01:30,50.6304533333333,-96.980775,6.5,8.7,187,990.94,-12.4,85,0.41,0.0,1020.28,270.0
2019-01-22 01:40,50.6304516666667,-96.9807766666667,6.8,8.7,186,990.96,-12.4,86,0.41,0.0,1020.29,270.0
2019-01-22 01:50,50.6304516666667,-96.9807716666667,6.5,8.4,185,990.97,-12.4,87,0.41,0.0,1020.29,270.0
2019-01-22 02:00,50.6304516666667,-96.98077,6.1,7.6,185,990.99,-12.4,88,0.41,0.0,1020.32,0.0
2019-01-22 02:10,50.63043,-96.9807633333333,5.9,8.2,185,991.01,-12.4,89,0.41,0.0,1020.33,0.0
2019-01-22 02:20,50.6304433333333,-96.9807666666667,5.2,7.2,184,991.08,-12.3,90,0.42,0.0,1020.40,0.0
2019-01-22 02:30,50.63044,-96.98077,5.1,6.6,184,991.14,-12.3,90,0.42,0.0,1020.45,0.0
2019-01-22 02:40,50.6304466666667,-96.980775,5.5,6.8,188,991.14,-12.3,91,0.41,0.0,1020.45,0.0
2019-01-22 02:50,50.630445,-96.9807766666667,6.0,7.7,190,991.12,-12.2,91,0.42,0.0,1020.42,0.0
2019-01-22 03:00,50.6304433333333,-96.9807766666667,6.5,8.2,185,990.97,-12.2,90,0.42,0.0,1020.26,360.0
2019-01-22 03:10,50.6304433333333,-96.980775,7.2,9.5,188,990.92,-12.1,90,0.42,0.0,1020.20,360.0
2019-01-22 03:20,50.630445,-96.980775,6.2,8.1,188,991.06,-12.1,90,0.42,0.0,1020.34,360.0
2019-01-22 03:30,50.630445,-96.9807733333333,6.9,10.3,187,991.09,-12.1,90,0.42,0.0,1020.37,360.0
2019-01-22 03:40,50.6304466666667,-96.9807733333333,7.6,10.4,181,991.04,-12.1,90,0.42,0.0,1020.32,360.0
2019-01-22 03:50,50.6304466666667,-96.9807716666667,8.2,10.5,181,991.04,-12.1,90,0.44,0.0,1020.32,360.0
2019-01-22 04:00,50.63045,-96.98077,7.3,9.8,181,991.08,-12.1,89,0.44,0.0,1020.36,347.4
2019-01-22 04:10,50.6304566666667,-96.9807616666667,7.5,10.1,186,991.13,-12.0,87,0.44,0.0,1020.41,347.4
2019-01-22 04:20,50.630455,-96.98076,7.8,10.0,188,991.14,-12.0,86,0.44,0.0,1020.42,347.4
2019-01-22 04:30,50.6304566666667,-96.9807666666667,6.9,8.6,188,991.20,-12.0,86,0.45,0.0,1020.48,347.4
2019-01-22 04:40,50.6304383333333,-96.9807433333333,7.8,10.0,185,991.23,-12.0,86,0.45,0.0,1020.50,347.4
2019-01-22 04:50,50.6304433333333,-96.980745,7.3,9.7,184,991.19,-12.0,86,0.45,0.0,1020.46,347.4
2019-01-22 05:00,50.630455,-96.98076,7.9,9.6,179,991.14,-12.1,87,0.45,0.0,1020.41,90.0
2019-01-22 05:10,50.630455,-96.980755,9.2,11.4,176,991.04,-12.1,87,0.45,0.0,1020.31,90.0
2019-01-22 05:20,50.6304683333333,-96.9807783333333,8.7,11.7,179,991.11,-12.1,87,0.46,0.0,1020.37,90.0
2019-01-22 05:30,50.6304616666667,-96.980765,8.5,10.7,177,991.14,-12.1,87,0.45,0.0,1020.41,90.0
2019-01-22 05:40,50.6304616666667,-96.980765,8.1,9.8,177,991.26,-12.1,88,0.43,0.0,1020.53,90.0
2019-01-22 05:50,50.630465,-96.98077,7.9,9.4,179,991.28,-12.1,88,0.41,0.0,1020.55,90.0
2019-01-22 06:00,50.630465,-96.9807733333333,7.4,9.6,182,991.34,-12.1,88,0.42,0.0,1020.61,360.0
2019-01-22 06:10,50.6304616666667,-96.98077,7.4,9.7,182,991.35,-12.1,88,0.44,0.0,1020.62,360.0
2019-01-22 06:20,50.630465,-96.9807683333333,7.1,8.9,182,991.32,-12.1,88,0.45,0.0,1020.58,360.0
2019-01-22 06:30,50.6304666666667,-96.9807633333333,6.4,8.0,185,991.31,-12.1,88,0.45,0.0,1020.57,360.0
2019-01-22 06:40,50.6304666666667,-96.98076,7.1,9.2,182,991.28,-12.1,88,0.44,0.0,1020.55,360.0
2019-01-22 06:50,50.630465,-96.98076,7.5,8.9,182,991.23,-12.1,88,0.45,0.0,1020.49,360.0
2019-01-22 07:00,50.6304633333333,-96.98077,7.3,9.1,182,991.16,-12.1,88,0.45,0.0,1020.43,360.0
2019-01-22 07:10,50.6304683333333,-96.980765,7.0,9.2,181,991.06,-12.1,88,0.44,0.0,1020.32,360.0
2019-01-22 07:20,50.630465,-96.98076,6.3,8.0,184,991.10,-12.1,89,0.43,0.0,1020.37,360.0
2019-01-22 07:30,50.6304533333333,-96.980765,6.0,7.5,186,991.20,-12.1,89,0.42,0.0,1020.46,360.0
2019-01-22 07:40,50.6304683333333,-96.98077,5.9,7.3,188,991.22,-12.0,88,0.41,0.0,1020.49,360.0
2019-01-22 07:50,50.630465,-96.9807666666667,6.1,7.7,181,991.10,-12.1,89,0.42,0.0,1020.36,360.0
2019-01-22 08:00,50.6304616666667,-96.9807666666667,5.9,7.8,179,991.01,-12.1,89,0.42,0.0,1020.27,360.0
2019-01-22 08:10,50.6304266666667,-96.9807466666667,5.6,7.4,183,991.01,-12.1,89,0.43,0.0,1020.27,360.0
2019-01-22 08:20,50.6304566666667,-96.980745,5.1,7.1,183,991.09,-12.0,89,0.46,0.0,1020.35,360.0
2019-01-22 08:30,50.6304583333333,-96.980765,4.9,6.1,185,991.13,-12.0,90,0.47,0.0,1020.40,360.0
2019-01-22 08:40,50.6304633333333,-96.9807483333333,4.8,6.5,183,991.11,-12.0,90,0.46,0.0,1020.37,360.0
2019-01-22 08:50,50.63044,-96.98073,4.8,6.4,179,991.09,-12.0,90,0.47,0.0,1020.35,360.0
2019-01-22 09:00,50.6304483333333,-96.9807516666667,4.8,5.9,180,991.09,-12.0,90,0.48,0.0,1020.35,152.6
2019-01-22 09:10,50.6304483333333,-96.98076,5.0,6.1,178,990.95,-12.0,90,0.48,0.0,1020.21,152.6
2019-01-22 09:20,50.6304483333333,-96.9807616666667,5.3,6.2,175,990.83,-12.0,90,0.48,0.0,1020.08,152.6
2019-01-22 09:30,50.63045,-96.9807633333333,4.9,6.2,177,990.78,-12.0,90,0.48,0.0,1020.02,152.6
2019-01-22 09:40,50.630435,-96.9808133333333,4.7,5.8,181,990.72,-12.0,90,0.48,0.0,1019.96,152.6
2019-01-22 09:50,50.6304466666667,-96.9807716666667,5.0,5.9,182,990.68,-11.9,90,0.50,0.0,1019.93,152.6
2019-01-22 10:00,50.6304566666667,-96.9807566666667,4.3,5.7,181,990.67,-11.9,90,0.50,0.0,1019.91,360.0
2019-01-22 10:10,50.6304533333333,-96.9807616666667,4.1,5.9,187,990.65,-11.9,90,0.51,0.0,1019.88,360.0
2019-01-22 10:20,50.6304566666667,-96.980755,4.0,5.2,194,990.66,-11.8,90,0.52,0.0,1019.90,360.0
2019-01-22 10:30,50.6304566666667,-96.9807583333333,3.7,4.5,200,990.67,-11.8,90,0.52,0.0,1019.90,360.0
2019-01-22 10:40,50.6304583333333,-96.9807616666667,3.5,4.5,199,990.67,-11.8,90,0.50,0.0,1019.91,360.0
2019-01-22 10:50,50.6304583333333,-96.9807633333333,2.8,4.4,204,990.73,-11.8,91,0.48,0.0,1019.96,360.0
2019-01-22 11:00,50.630455,-96.98077,3.1,4.2,200,990.80,-11.8,91,0.48,0.0,1020.03,360.0
2019-01-22 11:10,50.630455,-96.980765,2.9,3.6,209,990.81,-11.8,91,0.49,0.0,1020.05,360.0
2019-01-22 11:20,50.6304716666667,-96.980775,2.9,4.1,203,990.89,-11.8,92,0.51,0.0,1020.12,360.0
2019-01-22 11:30,50.63045,-96.9807683333333,2.8,3.5,212,991.00,-11.8,92,0.53,0.0,1020.24,360.0
2019-01-22 11:40,50.63045,-96.98077,1.9,2.9,221,990.95,-11.8,92,0.53,0.0,1020.18,360.0
2019-01-22 11:50,50.63042,-96.980755,2.0,2.7,221,990.97,-11.8,92,0.53,0.0,1020.20,360.0
2019-01-22 12:00,50.630445,-96.98077,1.9,2.8,228,991.01,-11.8,93,0.52,0.0,1020.24,234.7
2019-01-22 12:10,50.6304516666667,-96.9807733333333,2.1,2.8,241,991.10,-11.7,93,0.51,0.0,1020.33,234.7
2019-01-22 12:20,50.6304533333333,-96.9807716666667,2.1,3.0,240,991.09,-11.7,93,0.48,0.0,1020.32,234.7
2019-01-22 12:30,50.630455,-96.9807716666667,2.4,3.2,239,991.09,-11.7,93,0.48,0.0,1020.32,234.7
2019-01-22 12:40,50.6304583333333,-96.9807533333333,2.2,3.3,256,991.16,-11.7,93,0.48,0.0,1020.39,234.7
2019-01-22 12:50,50.63046,-96.9807466666667,2.2,3.2,271,991.14,-11.7,93,0.49,0.0,1020.37,234.7
2019-01-22 13:00,50.63046,-96.98076,2.2,3.3,255,991.06,-11.7,93,0.48,0.0,1020.29,360.0
2019-01-22 13:10,50.6304633333333,-96.9808016666667,2.5,4.1,268,991.16,-11.7,92,0.47,0.0,1020.38,360.0
2019-01-22 13:20,50.6304433333333,-96.980775,2.9,4.4,278,991.29,-11.6,92,0.46,0.0,1020.52,360.0
2019-01-22 13:30,50.6304416666667,-96.98077,3.1,5.3,272,991.39,-11.7,92,0.45,0.0,1020.62,360.0
2019-01-22 13:40,50.630445,-96.98077,4.0,5.9,285,991.43,-11.7,92,0.45,0.0,1020.67,360.0
2019-01-22 13:50,50.630445,-96.9807683333333,4.1,6.1,298,991.53,-11.7,92,0.46,0.0,1020.77,360.0
2019-01-22 14:00,50.6304466666667,-96.9807666666667,4.2,6.7,299,991.46,-11.7,92,0.46,0.0,1020.69,142.0
2019-01-22 14:10,50.6304833333333,-96.9807866666667,3.9,5.5,296,991.42,-11.7,92,0.46,0.0,1020.65,142.0
2019-01-22 14:20,50.63046,-96.9807633333333,4.3,6.5,298,991.48,-11.8,91,0.47,0.0,1020.72,142.0
2019-01-22 14:30,50.6304583333333,-96.9807583333333,4.7,7.8,294,991.60,-11.8,92,0.46,0.0,1020.84,142.0
2019-01-22 14:40,50.6304533333333,-96.9807616666667,4.8,7.8,292,991.65,-11.8,93,0.45,0.0,1020.89,142.0
2019-01-22 14:50,50.6304466666667,-96.9807583333333,4.3,6.7,293,991.68,-11.8,93,0.45,0.0,1020.92,142.0
2019-01-22 15:00,50.6304533333333,-96.9807683333333,4.7,7.6,290,991.70,-11.8,93,0.47,0.0,1020.94,360.0
2019-01-22 15:10,50.6304466666667,-96.9807716666667,4.7,7.1,301,991.73,-11.7,92,0.48,0.0,1020.96,360.0
2019-01-22 15:20,50.6304466666667,-96.9807666666667,4.8,7.1,302,991.71,-11.7,91,0.49,0.0,1020.95,360.0
2019-01-22 15:30,50.63045,-96.9807666666667,5.4,7.8,298,991.69,-11.6,91,0.50,0.0,1020.93,360.0
2019-01-22 15:40,50.63045,-96.9807666666667,4.6,6.9,299,991.74,-11.5,90,0.49,0.0,1020.97,360.0
2019-01-22 15:50,50.6304533333333,-96.9807666666667,4.5,7.4,302,991.76,-11.4,90,0.50,0.0,1020.98,360.0
2019-01-22 16:00,50.63045,-96.9807516666667,4.7,7.1,299,991.79,-11.4,89,0.50,0.0,1021.01,131.7
2019-01-22 16:10,50.6304516666667,-96.980765,4.6,6.5,304,991.86,-11.3,89,0.49,0.0,1021.08,131.7
2019-01-22 16:20,50.6304516666667,-96.980765,6.2,8.6,297,991.98,-11.2,88,0.49,0.0,1021.20,131.7
2019-01-22 16:30,50.63045,-96.980765,5.7,9.0,302,992.00,-11.2,88,0.49,0.0,1021.22,131.7
2019-01-22 16:40,50.6304316666667,-96.9807583333333,5.9,9.3,303,992.07,-11.1,87,0.49,0.0,1021.29,131.7
2019-01-22 16:50,50.6304366666667,-96.9807666666667,5.9,9.3,297,992.09,-11.1,86,0.49,0.0,1021.31,131.7
2019-01-22 17:00,50.63044,-96.9807733333333,7.2,9.4,302,992.14,-11.0,85,0.51,0.0,1021.35,228.3
2019-01-22 17:10,50.6304433333333,-96.98077,6.3,9.4,302,992.15,-10.9,84,0.52,0.0,1021.36,228.3
2019-01-22 17:20,50.630445,-96.9807666666667,7.8,11.4,305,992.09,-10.8,82,0.49,0.0,1021.29,228.3
2019-01-22 17:30,50.630445,-96.980765,7.0,10.4,305,992.08,-10.7,81,0.48,0.0,1021.26,228.3
2019-01-22 17:40,50.630445,-96.9807666666667,6.8,11.5,300,992.02,-10.6,81,0.48,0.0,1021.19,228.3
2019-01-22 17:50,50.6304433333333,-96.9807683333333,6.6,10.9,298,991.95,-10.5,80,0.50,0.0,1021.11,228.3
2019-01-22 18:00,50.630445,-96.9807683333333,5.9,9.3,293,991.83,-10.2,77,0.50,0.0,1020.97,360.0
2019-01-22 18:10,50.630445,-96.98077,7.8,11.3,290,991.60,-9.7,72,0.49,0.0,1020.70,360.0
2019-01-22 18:20,50.630445,-96.9807683333333,8.9,13.6,293,991.48,-9.6,69,0.48,0.0,1020.56,360.0
2019-01-22 18:30,50.6304466666667,-96.98077,8.5,12.6,305,991.34,-9.6,66,0.48,0.0,1020.41,360.0
2019-01-22 18:40,50.6304466666667,-96.98077,7.5,11.2,296,991.26,-9.4,65,0.48,0.0,1020.33,360.0
2019-01-22 18:50,50.6304483333333,-96.98077,7.5,12.0,297,991.13,-9.4,64,0.49,0.0,1020.18,360.0
2019-01-22 19:00,50.6304483333333,-96.98077,7.2,11.7,304,991.08,-9.4,63,0.51,0.0,1020.13,234.7
2019-01-22 19:10,50.6304483333333,-96.98077,5.3,9.4,305,990.94,-9.1,62,0.53,0.0,1019.97,234.7
2019-01-22 19:20,50.6304483333333,-96.98077,6.9,11.3,301,990.86,-9.2,62,0.54,0.0,1019.87,234.7
2019-01-22 19:30,50.6304483333333,-96.98077,6.7,9.8,297,990.84,-9.3,61,0.56,0.0,1019.86,234.7
2019-01-22 19:40,50.6304466666667,-96.9807733333333,6.5,9.3,296,990.82,-9.2,59,0.56,0.0,1019.82,234.7
2019-01-22 19:50,50.6304483333333,-96.9807733333333,6.9,10.1,290,990.75,-9.2,58,0.57,0.0,1019.74,234.7
2019-01-22 20:00,50.6304516666667,-96.9807766666667,7.2,9.7,282,990.74,-9.3,58,0.56,0.0,1019.71,360.0
2019-01-22 20:10,50.63045,-96.9807783333333,7.7,10.5,293,990.71,-9.2,57,0.53,0.0,1019.66,360.0
2019-01-22 20:20,50.63045,-96.98078,7.7,12.6,298,990.74,-9.2,56,0.51,0.0,1019.69,360.0
2019-01-22 20:30,50.6304516666667,-96.98078,6.0,8.9,299,990.76,-9.0,56,0.49,0.0,1019.70,360.0
2019-01-22 20:40,50.6304516666667,-96.98078,6.8,10.5,311,990.62,-9.1,55,0.48,0.0,1019.55,360.0
2019-01-22 20:50,50.6304616666667,-96.98079,5.9,10.5,305,990.59,-9.0,55,0.48,0.0,1019.52,360.0
2019-01-22 21:00,50.63046,-96.980775,6.6,10.9,302,990.56,-9.0,56,0.48,0.0,1019.47,360.0
2019-01-22 21:10,50.63046,-96.9807716666667,7.0,10.7,306,990.48,-9.0,56,0.48,0.0,1019.39,360.0
2019-01-22 21:20,50.63046,-96.9807716666667,5.9,8.9,303,990.37,-9.0,56,0.48,0.0,1019.29,360.0
2019-01-22 21:30,50.6304233333333,-96.980735,3.8,6.4,303,990.34,-8.6,55,0.48,0.0,1019.23,360.0
2019-01-22 21:40,50.6304533333333,-96.98075,5.5,9.0,298,990.29,-9.1,58,0.49,0.0,1019.21,360.0
2019-01-22 21:50,50.6304533333333,-96.9807566666667,5.6,8.5,303,990.30,-9.6,59,0.51,0.0,1019.24,360.0
2019-01-22 22:00,50.630455,-96.98076,5.4,8.2,311,990.36,-9.7,60,0.53,0.0,1019.31,48.3
2019-01-22 22:10,50.630455,-96.9807433333333,4.6,8.3,292,990.42,-9.8,61,0.54,0.0,1019.38,48.3
2019-01-22 22:20,50.6304533333333,-96.980755,4.7,7.6,299,990.37,-9.8,61,0.55,0.0,1019.32,48.3
2019-01-22 22:30,50.6304533333333,-96.98076,4.5,6.4,306,990.36,-9.9,61,0.56,0.0,1019.31,48.3
2019-01-22 22:40,50.6304566666667,-96.9807616666667,3.5,5.6,305,990.38,-10.0,62,0.57,0.0,1019.33,48.3
2019-01-22 22:50,50.6304566666667,-96.9807616666667,3.2,5.8,295,990.40,-10.0,62,0.57,0.0,1019.35,48.3
2019-01-22 23:00,50.6304583333333,-96.9807633333333,2.2,3.6,289,990.45,-10.1,63,0.57,0.0,1019.41,48.3
2019-01-22 23:10,50.63046,-96.9807633333333,2.7,4.4,297,990.38,-10.2,64,0.57,0.0,1019.34,48.3
2019-01-22 23:20,50.63046,-96.9807633333333,2.9,4.5,280,990.34,-10.3,64,0.57,0.0,1019.29,48.3
2019-01-22 23:30,50.63046,-96.9807633333333,1.9,3.0,257,990.31,-10.4,64,0.57,0.0,1019.29,48.3
